Costa Neoclassica — ICIC — position and weather

sailwx.info

Track history (hours):
 
Tides and Currents Weather Stations Pressure Air Temp Water Temp Dewpoint Dewpoint Depression Visibility Wind Speed Wind Dir Waves Ship Positions

Costa Neoclassica

Last reported at 2017-Apr-28 02:30 UTC. Time now 2017-Apr-28 02:29 UTC.
Position N 44°59' E 013°16'.

Length 220 m; draft 7.6 m.

Type: Passenger vessel. MMSI: 247819000.

Date/timePositionNaut miles runAvg speedWind from/ knotsBaromVisibWave heightAir tempDewpointWater temp
2017-Apr-28 02:30N 44°59' E 013°16'816.6
2017-Apr-28 02:00N 44°54' E 013°25'817.0
2017-Apr-28 01:30N 44°47' E 013°31'816.8
2017-Apr-28 01:00N 44°40' E 013°37'917.0
2017-Apr-28 00:30N 44°33' E 013°44'917.4
2017-Apr-28 00:01N 44°25' E 013°51'917.1
2017-Apr-27 23:30N 44°18' E 013°57'918.2
2017-Apr-27 23:00N 44°11' E 014°04'919.1
2017-Apr-27 22:31N 44°03' E 014°11'26910.3
2017-Apr-26 20:19N 40°45' E 018°18'514.7
2017-Apr-26 19:57N 40°41' E 018°23'5016.1
2017-Apr-26 16:49N 39°58' E 018°58'617.9
2017-Apr-26 16:30N 39°53' E 019°01'817.2
2017-Apr-26 16:00N 39°45' E 019°06'2311.4
2017-Apr-26 14:00N 39°24' E 019°18'20015.4 140 / 91024.0 17.011.917.0
2017-Apr-26 01:00N 36°36' E 021°36'9413.9 130 / 21024.0 14.0 8.517.0
2017-Apr-25 18:16N 36°52' E 023°31'1915.5
2017-Apr-25 17:01N 37°11' E 023°36'115.6
2017-Apr-25 16:59N 37°11' E 023°36'815.7
2017-Apr-25 16:30N 37°18' E 023°38'815.5
2017-Apr-25 16:00N 37°26' E 023°40'815.4
2017-Apr-25 15:29N 37°34' E 023°42'714.8
2017-Apr-25 15:00N 37°41' E 023°41'815.3
2017-Apr-25 14:31N 37°48' E 023°37'8 8.3
2017-Apr-25 13:31N 37°56' E 023°38'0 0.0
2017-Apr-25 12:59N 37°56' E 023°38'0 0.0
2017-Apr-25 12:28N 37°56' E 023°38'0 0.0
2017-Apr-25 11:59N 37°56' E 023°38'0 0.0
2017-Apr-25 11:29N 37°56' E 023°38'0 0.0
2017-Apr-25 10:58N 37°56' E 023°38'0 0.0
2017-Apr-25 10:28N 37°56' E 023°38'0 0.0
2017-Apr-25 09:59N 37°56' E 023°38'0 0.0
2017-Apr-25 09:28N 37°56' E 023°38'0 0.0
2017-Apr-25 08:59N 37°56' E 023°38'0 0.0
2017-Apr-25 08:28N 37°56' E 023°38'0 0.0
2017-Apr-25 07:58N 37°56' E 023°38'0 0.0
2017-Apr-25 07:28N 37°56' E 023°38'0 0.0
2017-Apr-25 06:58N 37°56' E 023°38'0 0.0
2017-Apr-25 06:28N 37°56' E 023°38'0 0.0
2017-Apr-25 05:59N 37°56' E 023°38'0 0.0
2017-Apr-25 05:29N 37°56' E 023°38'0 0.0
2017-Apr-25 04:59N 37°56' E 023°38'0 0.0
2017-Apr-25 04:29N 37°56' E 023°38'0 0.4
2017-Apr-25 04:00N 37°56' E 023°38'2 3.9
2017-Apr-25 03:30N 37°55' E 023°37'713.2
2017-Apr-25 03:00N 37°49' E 023°41'714.5
2017-Apr-25 02:30N 37°42' E 023°44'714.6
2017-Apr-25 02:00N 37°37' E 023°51'714.6
2017-Apr-25 01:30N 37°32' E 023°58'714.4
2017-Apr-25 01:00N 37°25' E 024°00'5366.1
2017-Apr-25 01:00N 37°24' E 023°54'918.7 110 / 21025.0 15.011.617.0
2017-Apr-25 00:30N 37°18' E 024°02'  
2017-Apr-22 04:00N 42°36' E 015°30'13319.3 360 / 131030.0 14.0 6.317.0
2017-Apr-21 21:05N 44°24' E 013°43'117.9
2017-Apr-21 21:00N 44°26' E 013°42'917.9
2017-Apr-21 20:30N 44°33' E 013°35'918.1
2017-Apr-21 20:00N 44°41' E 013°28'917.9
2017-Apr-21 19:30N 44°49' E 013°22'917.8
2017-Apr-21 19:00N 44°56' E 013°16'917.6
2017-Apr-21 18:30N 45°02' E 013°07'917.6
2017-Apr-21 18:00N 45°08' E 012°57'917.3
2017-Apr-21 17:30N 45°13' E 012°47'917.1
2017-Apr-21 17:00N 45°19' E 012°38'7424.2
2017-Apr-21 17:00N 45°12' E 012°36'1326.6 180 / 191025.0 15.0 5.317.0
2017-Apr-21 16:30N 45°24' E 012°29'5 9.7
2017-Apr-21 16:00N 45°26' E 012°23'3 5.4
2017-Apr-21 15:30N 45°26' E 012°19'1 1.1
2017-Apr-21 15:00N 45°26' E 012°19'0 0.0
2017-Apr-21 14:30N 45°26' E 012°19'0 0.0
2017-Apr-21 13:30N 45°26' E 012°19'0 0.0
2017-Apr-21 13:00N 45°26' E 012°19'0 0.0
2017-Apr-21 12:30N 45°26' E 012°19'0 0.0
2017-Apr-21 12:00N 45°26' E 012°19'0 0.0
2017-Apr-21 11:30N 45°26' E 012°19'0 0.0
2017-Apr-21 11:00N 45°26' E 012°19'0 0.0
2017-Apr-21 10:30N 45°26' E 012°19'0 0.0
2017-Apr-21 10:00N 45°26' E 012°19'0 0.0
2017-Apr-21 09:30N 45°26' E 012°19'0 0.0
2017-Apr-21 09:00N 45°26' E 012°19'0 0.0
2017-Apr-21 08:30N 45°26' E 012°19'0 0.0
2017-Apr-21 08:00N 45°26' E 012°19'0 0.0
2017-Apr-21 07:30N 45°26' E 012°19'0 0.0
2017-Apr-21 07:00N 45°26' E 012°19'0 0.0
2017-Apr-21 06:30N 45°26' E 012°19'1 1.3
2017-Apr-21 06:01N 45°26' E 012°19'3 5.1
2017-Apr-21 05:30N 45°26' E 012°23'5 9.2
2017-Apr-21 05:01N 45°24' E 012°29'612.5
2017-Apr-21 04:31N 45°20' E 012°36'815.4
2017-Apr-21 04:00N 45°15' E 012°44'816.1
2017-Apr-21 03:30N 45°10' E 012°53'816.9
2017-Apr-21 03:00N 45°05' E 013°03'816.8
2017-Apr-21 02:30N 45°01' E 013°13'816.9
2017-Apr-21 02:00N 44°56' E 013°23'503107.2
2017-Apr-21 02:00N 44°54' E 012°12'55113.5 060 / 131024.0 9.0 4.917.0
2017-Apr-21 01:30N 44°49' E 013°29'816.9
2017-Apr-21 01:00N 44°42' E 013°36'917.2
2017-Apr-21 00:30N 44°35' E 013°42'917.2
2017-Apr-21 00:00N 44°27' E 013°49'917.3
2017-Apr-20 23:30N 44°20' E 013°55'10516.2
2017-Apr-20 17:00N 43°00' E 015°30'143 9.0 050 / 521025.0 13.0 9.417.0
2017-Apr-20 01:00N 41°48' E 018°18'24314.3 320 / 301021.0 17.0
2017-Apr-19 08:00N 38°00' E 020°06'7615.2 220 1023.0 14.0 6.417.0
2017-Apr-19 03:00N 36°54' E 020°54'3818.8 220 / 191023.0 14.0 6.417.0
2017-Apr-19 01:00N 36°30' E 021°30'11913.0 200 / 131023.0 14.0 6.417.0
2017-Apr-18 15:46N 37°29' E 023°40'516.8
2017-Apr-18 15:30N 37°33' E 023°41'816.0
2017-Apr-18 15:00N 37°41' E 023°41'816.3
2017-Apr-18 14:30N 37°48' E 023°37'8 7.6
2017-Apr-18 13:28N 37°56' E 023°38'0 0.0
2017-Apr-18 12:58N 37°56' E 023°38'0 0.0
2017-Apr-18 12:28N 37°56' E 023°38'0 0.0
2017-Apr-18 11:58N 37°56' E 023°38'0 0.0
2017-Apr-18 11:28N 37°56' E 023°38'0 0.0
2017-Apr-18 10:58N 37°56' E 023°38'0 0.0
2017-Apr-18 10:28N 37°56' E 023°38'0 0.0
2017-Apr-18 09:58N 37°56' E 023°38'0 0.0
2017-Apr-18 09:11N 37°56' E 023°38'0 0.0
2017-Apr-18 08:59N 37°56' E 023°38'0 0.0
2017-Apr-18 08:29N 37°56' E 023°38'0 0.0
2017-Apr-18 07:59N 37°56' E 023°38'0 0.0
2017-Apr-18 07:28N 37°56' E 023°38'0 0.0
2017-Apr-18 06:58N 37°56' E 023°38'0 0.0
2017-Apr-18 06:28N 37°56' E 023°38'0 0.0
2017-Apr-18 05:58N 37°56' E 023°38'0 0.0
2017-Apr-18 05:28N 37°56' E 023°38'0 0.0
2017-Apr-18 04:59N 37°56' E 023°38'0 0.0
2017-Apr-18 04:29N 37°56' E 023°38'1 2.9
2017-Apr-18 04:00N 37°56' E 023°37'1 1.7
2017-Apr-18 03:31N 37°55' E 023°37'3 6.0
2017-Apr-18 03:00N 37°52' E 023°39'816.4
2017-Apr-18 02:30N 37°45' E 023°43'815.5
2017-Apr-18 02:00N 37°39' E 023°49'  
Track history (hours):
 
Tides and Currents Weather Stations Pressure Air Temp Water Temp Dewpoint Dewpoint Depression Visibility Wind Speed Wind Dir Waves Ship Positions

Costa Neoclassica

Last reported at 2017-Apr-28 02:30 UTC. Time now 2017-Apr-28 02:29 UTC.
Position N 44°59' E 013°16'.

Length 220 m; draft 7.6 m.

Type: Passenger vessel. MMSI: 247819000.

Date/timePositionNaut miles runAvg speedWind from/ knotsBaromVisibWave heightAir tempDewpointWater temp
2017-Apr-28 02:30N 44°59' E 013°16'816.6
2017-Apr-28 02:00N 44°54' E 013°25'817.0
2017-Apr-28 01:30N 44°47' E 013°31'816.8
2017-Apr-28 01:00N 44°40' E 013°37'917.0
2017-Apr-28 00:30N 44°33' E 013°44'917.4
2017-Apr-28 00:01N 44°25' E 013°51'917.1
2017-Apr-27 23:30N 44°18' E 013°57'918.2
2017-Apr-27 23:00N 44°11' E 014°04'919.1
2017-Apr-27 22:31N 44°03' E 014°11'26910.3
2017-Apr-26 20:19N 40°45' E 018°18'514.7
2017-Apr-26 19:57N 40°41' E 018°23'5016.1
2017-Apr-26 16:49N 39°58' E 018°58'617.9
2017-Apr-26 16:30N 39°53' E 019°01'817.2
2017-Apr-26 16:00N 39°45' E 019°06'2311.4
2017-Apr-26 14:00N 39°24' E 019°18'20015.4 140 / 91024.0 17.011.917.0
2017-Apr-26 01:00N 36°36' E 021°36'9413.9 130 / 21024.0 14.0 8.517.0
2017-Apr-25 18:16N 36°52' E 023°31'1915.5
2017-Apr-25 17:01N 37°11' E 023°36'115.6
2017-Apr-25 16:59N 37°11' E 023°36'815.7
2017-Apr-25 16:30N 37°18' E 023°38'815.5
2017-Apr-25 16:00N 37°26' E 023°40'815.4
2017-Apr-25 15:29N 37°34' E 023°42'714.8
2017-Apr-25 15:00N 37°41' E 023°41'815.3
2017-Apr-25 14:31N 37°48' E 023°37'8 8.3
2017-Apr-25 13:31N 37°56' E 023°38'0 0.0
2017-Apr-25 12:59N 37°56' E 023°38'0 0.0
2017-Apr-25 12:28N 37°56' E 023°38'0 0.0
2017-Apr-25 11:59N 37°56' E 023°38'0 0.0
2017-Apr-25 11:29N 37°56' E 023°38'0 0.0
2017-Apr-25 10:58N 37°56' E 023°38'0 0.0
2017-Apr-25 10:28N 37°56' E 023°38'0 0.0
2017-Apr-25 09:59N 37°56' E 023°38'0 0.0
2017-Apr-25 09:28N 37°56' E 023°38'0 0.0
2017-Apr-25 08:59N 37°56' E 023°38'0 0.0
2017-Apr-25 08:28N 37°56' E 023°38'0 0.0
2017-Apr-25 07:58N 37°56' E 023°38'0 0.0
2017-Apr-25 07:28N 37°56' E 023°38'0 0.0
2017-Apr-25 06:58N 37°56' E 023°38'0 0.0
2017-Apr-25 06:28N 37°56' E 023°38'0 0.0
2017-Apr-25 05:59N 37°56' E 023°38'0 0.0
2017-Apr-25 05:29N 37°56' E 023°38'0 0.0
2017-Apr-25 04:59N 37°56' E 023°38'0 0.0
2017-Apr-25 04:29N 37°56' E 023°38'0 0.4
2017-Apr-25 04:00N 37°56' E 023°38'2 3.9
2017-Apr-25 03:30N 37°55' E 023°37'713.2
2017-Apr-25 03:00N 37°49' E 023°41'714.5
2017-Apr-25 02:30N 37°42' E 023°44'714.6
2017-Apr-25 02:00N 37°37' E 023°51'714.6
2017-Apr-25 01:30N 37°32' E 023°58'714.4
2017-Apr-25 01:00N 37°25' E 024°00'5366.1
2017-Apr-25 01:00N 37°24' E 023°54'918.7 110 / 21025.0 15.011.617.0
2017-Apr-25 00:30N 37°18' E 024°02'  
2017-Apr-22 04:00N 42°36' E 015°30'13319.3 360 / 131030.0 14.0 6.317.0
2017-Apr-21 21:05N 44°24' E 013°43'117.9
2017-Apr-21 21:00N 44°26' E 013°42'917.9
2017-Apr-21 20:30N 44°33' E 013°35'918.1
2017-Apr-21 20:00N 44°41' E 013°28'917.9
2017-Apr-21 19:30N 44°49' E 013°22'917.8
2017-Apr-21 19:00N 44°56' E 013°16'917.6
2017-Apr-21 18:30N 45°02' E 013°07'917.6
2017-Apr-21 18:00N 45°08' E 012°57'917.3
2017-Apr-21 17:30N 45°13' E 012°47'917.1
2017-Apr-21 17:00N 45°19' E 012°38'7424.2
2017-Apr-21 17:00N 45°12' E 012°36'1326.6 180 / 191025.0 15.0 5.317.0
2017-Apr-21 16:30N 45°24' E 012°29'5 9.7
2017-Apr-21 16:00N 45°26' E 012°23'3 5.4
2017-Apr-21 15:30N 45°26' E 012°19'1 1.1
2017-Apr-21 15:00N 45°26' E 012°19'0 0.0
2017-Apr-21 14:30N 45°26' E 012°19'0 0.0
2017-Apr-21 13:30N 45°26' E 012°19'0 0.0
2017-Apr-21 13:00N 45°26' E 012°19'0 0.0
2017-Apr-21 12:30N 45°26' E 012°19'0 0.0
2017-Apr-21 12:00N 45°26' E 012°19'0 0.0
2017-Apr-21 11:30N 45°26' E 012°19'0 0.0
2017-Apr-21 11:00N 45°26' E 012°19'0 0.0
2017-Apr-21 10:30N 45°26' E 012°19'0 0.0
2017-Apr-21 10:00N 45°26' E 012°19'0 0.0
2017-Apr-21 09:30N 45°26' E 012°19'0 0.0
2017-Apr-21 09:00N 45°26' E 012°19'0 0.0
2017-Apr-21 08:30N 45°26' E 012°19'0 0.0
2017-Apr-21 08:00N 45°26' E 012°19'0 0.0
2017-Apr-21 07:30N 45°26' E 012°19'0 0.0
2017-Apr-21 07:00N 45°26' E 012°19'0 0.0
2017-Apr-21 06:30N 45°26' E 012°19'1 1.3
2017-Apr-21 06:01N 45°26' E 012°19'3 5.1
2017-Apr-21 05:30N 45°26' E 012°23'5 9.2
2017-Apr-21 05:01N 45°24' E 012°29'612.5
2017-Apr-21 04:31N 45°20' E 012°36'815.4
2017-Apr-21 04:00N 45°15' E 012°44'816.1
2017-Apr-21 03:30N 45°10' E 012°53'816.9
2017-Apr-21 03:00N 45°05' E 013°03'816.8
2017-Apr-21 02:30N 45°01' E 013°13'816.9
2017-Apr-21 02:00N 44°56' E 013°23'503107.2
2017-Apr-21 02:00N 44°54' E 012°12'55113.5 060 / 131024.0 9.0 4.917.0
2017-Apr-21 01:30N 44°49' E 013°29'816.9
2017-Apr-21 01:00N 44°42' E 013°36'917.2
2017-Apr-21 00:30N 44°35' E 013°42'917.2
2017-Apr-21 00:00N 44°27' E 013°49'917.3
2017-Apr-20 23:30N 44°20' E 013°55'10516.2
2017-Apr-20 17:00N 43°00' E 015°30'143 9.0 050 / 521025.0 13.0 9.417.0
2017-Apr-20 01:00N 41°48' E 018°18'24314.3 320 / 301021.0 17.0
2017-Apr-19 08:00N 38°00' E 020°06'7615.2 220 1023.0 14.0 6.417.0
2017-Apr-19 03:00N 36°54' E 020°54'3818.8 220 / 191023.0 14.0 6.417.0
2017-Apr-19 01:00N 36°30' E 021°30'11913.0 200 / 131023.0 14.0 6.417.0
2017-Apr-18 15:46N 37°29' E 023°40'516.8
2017-Apr-18 15:30N 37°33' E 023°41'816.0
2017-Apr-18 15:00N 37°41' E 023°41'816.3
2017-Apr-18 14:30N 37°48' E 023°37'8 7.6
2017-Apr-18 13:28N 37°56' E 023°38'0 0.0
2017-Apr-18 12:58N 37°56' E 023°38'0 0.0
2017-Apr-18 12:28N 37°56' E 023°38'0 0.0
2017-Apr-18 11:58N 37°56' E 023°38'0 0.0
2017-Apr-18 11:28N 37°56' E 023°38'0 0.0
2017-Apr-18 10:58N 37°56' E 023°38'0 0.0
2017-Apr-18 10:28N 37°56' E 023°38'0 0.0
2017-Apr-18 09:58N 37°56' E 023°38'0 0.0
2017-Apr-18 09:11N 37°56' E 023°38'0 0.0
2017-Apr-18 08:59N 37°56' E 023°38'0 0.0
2017-Apr-18 08:29N 37°56' E 023°38'0 0.0
2017-Apr-18 07:59N 37°56' E 023°38'0 0.0
2017-Apr-18 07:28N 37°56' E 023°38'0 0.0
2017-Apr-18 06:58N 37°56' E 023°38'0 0.0
2017-Apr-18 06:28N 37°56' E 023°38'0 0.0
2017-Apr-18 05:58N 37°56' E 023°38'0 0.0
2017-Apr-18 05:28N 37°56' E 023°38'0 0.0
2017-Apr-18 04:59N 37°56' E 023°38'0 0.0
2017-Apr-18 04:29N 37°56' E 023°38'1 2.9
2017-Apr-18 04:00N 37°56' E 023°37'1 1.7
2017-Apr-18 03:31N 37°55' E 023°37'3 6.0
2017-Apr-18 03:00N 37°52' E 023°39'816.4
2017-Apr-18 02:30N 37°45' E 023°43'815.5
2017-Apr-18 02:00N 37°39' E 023°49'  

Dump ship's entire track history